Погода в Диббе

Объединённые Арабские Эмираты     25°37′20″N   56°16′23″E
темп.,
°C
ветер,
м/с
пор.,
м/с
влажн.,
%
обл.,
%
осадки,
мм/ч
давл.,
гПа
погр.,
м
16 июня, ср
ср1601:00+30з56340 0.0 99699
04:00+30з44270 0.0 99639
07:00+33з45160 0.0 998161
10:00+40зюз2491 0.0 998696
13:00+43зсз4580 0.0 9971227
16:00+42зсз77110 0.0 996962
19:00+37з45180 0.0 997104
22:00+31з45440 0.0 999124
17 июня, чт
чт1701:00+28з45650 0.0 998148
04:00+27зюз44650 0.0 99853
07:00+31зюз33460 0.0 999150
10:00+38зсз11190 0.0 999792
13:00+42всв33170 0.0 9971642
16:00+40св22190 0.0 9961099
19:00+37зюз33350 0.0 997304
22:00+31зюз44560 0.0 999220
18 июня, пт
пт1801:00+30зсз22630 0.0 999124
04:00+30з22560 0.0 99813
07:00+33св22430 0.0 999164
10:00+36всв57390 0.0 1000765
13:00+37всв67310 0.0 1000825
16:00+39в46150 0.0 998889
19:00+36вюв22190 0.0 99813
22:00+30всв22560 0.0 100029
19 июня, сб
сб1901:00+28всв11650 0.0 100017
04:00+29вюв22390 0.0 100013
07:00+29в33720 0.0 1003260
10:00+34в44470 0.0 1003656
13:00+39в54200 0.0 10011077
16:00+41вюв23160 0.0 9981524
19:00+38св11190 0.0 99827
22:00+30св33630 0.0 100195
20 июня, вс
вс2001:00+32з33350 0.0 100014
04:00+30сз11250 0.0 100011
07:00+30всв11600 0.0 1002153
10:00+38всв56170 0.0 1002861
13:00+40всв55140 0.0 10011386
16:00+41св3570 0.0 9991931
19:00+37в11140 0.0 99912
22:00+34св11150 0.0 100011